Weather History for Mosinee, WI

Change the Weather History Date:

Wednesday, February 13, 2013

  Actual Average Record
Temperature  
Mean Temperature 24 °F -  
Max Temperature 33 °F 26 °F 46 °F (2011)
Min Temperature 15 °F 10 °F 0 °F (1997)
Degree Days  
Heating Degree Days 41    
Moisture  
Dew Point 23 °F    
Average Humidity 93    
Maximum Humidity 100    
Minimum Humidity 75    
Precipitation  
Precipitation 0.00 in - - ()
Sea Level Pressure  
Sea Level Pressure 29.68 in    
Wind  
Wind Speed 4 mph (SW)    
Max Wind Speed 10 mph    
Max Gust Speed -    
Visibility 6 miles    
Events Snow    
Averages and records for this station are not official NWS values.
T = Trace of Precipitation, MM = Missing Value Source: NWS Daily Summary

Daily Weather History Graph

Daily Weather History Graph

Search for Another Location

Airport:

Trip Planner

Search our weather history database for the weather conditions in past years. The results will help you decide how hot, cold, wet, or windy it might be!

Date:

Astronomy

Feb. 13, 2013 Rise Set
Actual Time 7:01 AM CST 5:24 PM CST
Civil Twilight 6:31 AM CST 5:54 PM CST
Nautical Twilight 5:57 AM CST 6:29 PM CST
Astronomical Twilight 5:23 AM CST 7:03 PM CST
Moon 8:19 AM CST (2/13) 9:40 PM CST (2/13)
Length of Visible Light 11h 23m
Length of Day
10h 22m
Waxing Crescent, 14% of the Moon is Illuminated
Feb 13
Waxing Crescent
Feb 17
First Quarter
Feb 25
Full
Mar 4
Last Quarter
Mar 11
New

Hourly Weather History & Observations

Time (CST) Temp. Windchill Dew Point Humidity Pressure Visibility Wind Dir Wind Speed Gust Speed Precip Events Conditions
12:15 AM 17.6 °F 10.7 °F 17.6 °F 100% 29.76 in 7.0 mi SSW 4.6 mph - N/A   Clear
12:35 AM 17.6 °F 9.3 °F 17.6 °F 100% 29.76 in 7.0 mi South 5.8 mph - N/A   Clear
12:55 AM 17.6 °F 12.3 °F 17.6 °F 100% 29.75 in 7.0 mi SSW 3.5 mph - N/A   Clear
1:15 AM 17.6 °F 12.3 °F 17.6 °F 100% 29.75 in 7.0 mi WSW 3.5 mph - N/A   Clear
1:35 AM 17.6 °F - 17.6 °F 100% 29.75 in 4.0 mi Calm Calm - N/A   Scattered Clouds
1:55 AM 17.6 °F - 17.6 °F 100% 29.75 in 4.0 mi Calm Calm - N/A   Mostly Cloudy
2:15 AM 17.6 °F 12.3 °F 15.8 °F 93% 29.75 in 0.8 mi South 3.5 mph - N/A   Overcast
2:35 AM 15.8 °F 10.2 °F 15.8 °F 100% 29.73 in 1.2 mi SSW 3.5 mph - N/A   Overcast
2:55 AM 15.8 °F 10.2 °F 15.8 °F 100% 29.73 in 1.5 mi SSW 3.5 mph - N/A   Scattered Clouds
3:15 AM 17.6 °F 10.7 °F 17.6 °F 100% 29.72 in 1.8 mi South 4.6 mph - N/A   Mist
3:35 AM 17.6 °F 10.7 °F 17.6 °F 100% 29.72 in 1.8 mi SSW 4.6 mph - N/A   Mist
3:55 AM 17.6 °F 12.3 °F 15.8 °F 93% 29.72 in 3.0 mi SSW 3.5 mph - N/A   Mostly Cloudy
4:15 AM 19.4 °F 11.5 °F 19.4 °F 100% 29.72 in 4.0 mi SW 5.8 mph - N/A   Overcast
4:35 AM 17.6 °F 10.7 °F 17.6 °F 100% 29.71 in 4.0 mi SSW 4.6 mph - N/A   Overcast
5:45 AM 17.6 °F 12.3 °F 17.6 °F 100% 29.70 in 4.0 mi SW 3.5 mph - N/A   Overcast
6:50 AM 17.6 °F - 17.6 °F 100% 29.70 in 4.0 mi Calm Calm - N/A   Overcast
7:45 AM 19.4 °F - 19.4 °F 100% 29.69 in 4.0 mi Calm Calm - N/A   Overcast
8:50 AM 21.2 °F 14.9 °F 21.2 °F 100% 29.69 in 5.0 mi SW 4.6 mph - N/A   Overcast
9:55 AM 24.8 °F 15.3 °F 24.8 °F 100% 29.68 in 7.0 mi WSW 9.2 mph - N/A   Overcast
10:45 AM 24.8 °F 19.1 °F 24.8 °F 100% 29.67 in 10.0 mi WSW 4.6 mph - N/A   Mostly Cloudy
11:45 AM 28.4 °F 21.2 °F 24.8 °F 86% 29.66 in 10.0 mi WSW 6.9 mph - N/A   Overcast
12:45 PM 32.0 °F 26.4 °F 24.8 °F 75% 29.65 in 10.0 mi WSW 5.8 mph - N/A   Mostly Cloudy
1:45 PM 32.0 °F 24.8 °F 24.8 °F 75% 29.64 in 10.0 mi SW 8.1 mph - N/A   Mostly Cloudy
2:45 PM 32.0 °F 23.6 °F 24.8 °F 75% 29.65 in 10.0 mi WSW 10.4 mph - N/A   Overcast
3:45 PM 33.8 °F 27.0 °F 26.6 °F 75% 29.65 in 10.0 mi WSW 8.1 mph - N/A   Mostly Cloudy
4:45 PM 32.0 °F 27.5 °F 26.6 °F 80% 29.64 in 10.0 mi SW 4.6 mph - N/A Snow Light Snow
5:45 PM 32.0 °F 27.5 °F 28.4 °F 87% 29.64 in 10.0 mi SSW 4.6 mph - N/A   Overcast
6:45 PM 32.0 °F 27.5 °F 26.6 °F 80% 29.65 in 10.0 mi SSW 4.6 mph - N/A   Overcast
7:45 PM 32.0 °F - 28.4 °F 87% 29.65 in 10.0 mi Calm Calm - N/A Snow Light Snow
8:45 PM 30.2 °F 26.7 °F 28.4 °F 93% 29.64 in 10.0 mi Variable 3.5 mph - N/A   Overcast
9:15 PM 32.0 °F 28.7 °F 28.4 °F 87% 29.63 in 10.0 mi SW 3.5 mph - N/A   Overcast
9:35 PM 32.0 °F 26.4 °F 28.4 °F 87% 29.63 in 7.0 mi SW 5.8 mph - N/A Snow Light Snow
9:45 PM 30.2 °F 25.4 °F 26.6 °F 86% 29.62 in 7.0 mi SSW 4.6 mph - N/A Snow Light Snow
9:55 PM 30.2 °F 24.3 °F 28.4 °F 93% 29.62 in 10.0 mi SSW 5.8 mph - N/A Snow Light Snow
10:15 PM 30.2 °F - 28.4 °F 93% 29.62 in 10.0 mi Calm Calm - N/A   Mostly Cloudy
10:35 PM 30.2 °F 26.7 °F 28.4 °F 93% 29.61 in 5.0 mi SSE 3.5 mph - N/A Snow Light Snow
10:55 PM 30.2 °F 26.7 °F 30.2 °F 100% 29.61 in 7.0 mi South 3.5 mph - N/A Snow Light Snow
11:15 PM 30.2 °F 26.7 °F 30.2 °F 100% 29.61 in 2.5 mi South 3.5 mph - N/A Snow Light Snow
11:35 PM 30.2 °F - 30.2 °F 100% 29.61 in 2.0 mi Calm Calm - N/A Snow Light Snow
11:55 PM 30.2 °F - 30.2 °F 100% 29.60 in 3.0 mi Calm Calm - N/A Snow Light Snow